SB KEPS @ AMSAT $ORB11335.N 2Line Orbital Elements 11335.AMSAT
HR AMSAT ORBITAL ELEMENTS FOR AMATEUR SATELLITES IN NASA FORMAT FROM WA5QGD FORT WORTH,TX December 1, 2011 Send Subscribe/unsubscribe to KEPS at http://www.amsat.org/mailman/listinfo/keps BID: ORB11335.N
DECODE 2-LINE ELSETS WITH THE FOLLOWING KEY: 1 AAAAAU 00 0 0 BBBBB.BBBBBBBB .CCCCCCCC 00000-0 00000-0 0 DDDZ 2 AAAAA EEE.EEEE FFF.FFFF GGGGGGG HHH.HHHH III.IIII JJ.JJJJJJJJKKKKKZ KEY: A-CATALOGNUM B-EPOCHTIME C-DECAY D-ELSETNUM E-INCLINATION F-RAAN G-ECCENTRICITY H-ARGPERIGEE I-MNANOM J-MNMOTION K-ORBITNUM Z-CHECKSUM
TO ALL RADIO AMATEURS BT
AO-07 1 07530U 74089B 11335.58887659 -.00000027 00000-0 10000-3 0 2438 2 07530 101.3961 335.5426 0011873 312.0858 047.9200 12.53585996695165 FO-29 1 24278U 96046B 11334.96307594 .00000055 00000-0 91488-4 0 07399 2 24278 098.5707 096.8317 0350522 185.0587 174.6973 13.52972401755015 SO-33 1 25509U 98061B 11334.49401466 .00001379 00000-0 26009-3 0 01128 2 25509 031.4367 023.6279 0353542 256.1439 099.9604 14.28571898684073 RS-22 1 27939U 03042A 11335.71235527 .00001120 00000-0 22298-3 0 8612 2 27939 097.8252 181.5355 0013548 170.0417 190.1054 14.63792916436847 VO-52 1 28650U 05017B 11334.36830378 .00001929 00000-0 24539-3 0 09632 2 28650 097.6228 009.9043 0026399 339.8242 020.1916 14.82462102355363 SO-67 1 35870U 09049F 11335.89171698 .00006755 00000-0 29805-3 0 4565 2 35870 097.2602 013.5507 0003051 122.6672 339.5098 15.22074073122437 HO-68 1 36122U 09072B 11335.68382941 -.00000044 00000-0 00000 0 0 9747 2 36122 100.3940 033.7933 0007578 199.6954 160.3877 13.16290732 94279 UO-11 1 14781U 84021B 11335.73485930 .00001367 00000-0 18673-3 0 7216 2 14781 097.9835 031.7225 0008496 322.8736 037.1887 14.80198514490572 AO-16 1 20439U 90005D 11334.88427994 .00000245 00000-0 10694-3 0 3386 2 20439 098.4061 279.1026 0011677 032.8697 327.3211 14.31984355141471 LO-19 1 20442U 90005G 11335.84600481 .00000422 00000-0 17211-3 0 2604 2 20442 098.3699 283.7548 0012341 023.4971 336.6769 14.32208112141798 AO-27 1 22825U 93061C 11334.89274203 .00000227 00000-0 10610-3 0 09762 2 22825 098.5519 276.0592 0008965 141.0390 219.1438 14.29401861948000 IO-26 1 22826U 93061D 11334.86141229 .00000250 00000-0 11440-3 0 07374 2 22826 098.5457 276.4539 0009522 135.5774 224.6173 14.29669885948123 GO-32 1 25397U 98043D 11334.88252209 .00000036 00000-0 33766-4 0 6421 2 25397 098.3416 318.6573 0001952 125.0570 235.0798 14.23240585695670 NO-44 1 26931U 01043C 11334.88705937 .00000210 00000-0 11374-3 0 09103 2 26931 067.0525 273.9703 0004942 272.3538 087.6990 14.29727121530753 SO-50 1 27607U 02058C 11334.12460380 .00001015 00000-0 17428-3 0 06284 2 27607 064.5565 183.3491 0083504 287.2844 071.9136 14.72046142480515 CO-55 1 27844U 03031E 11335.56560204 .00000440 00000-0 22353-3 0 2554 2 27844 098.7049 341.8408 0010522 075.1955 285.0386 14.20911117436680 CO-57 1 27848U 03031J 11334.69034150 .00000400 00000-0 20601-3 0 2018 2 27848 098.7134 340.2283 0010730 083.7341 276.5037 14.20677371436508 AO-51 1 28375U 04025K 11335.82520438 .00000711 00000-0 22595-3 0 1336 2 28375 098.1192 305.6538 0083314 282.6930 076.4938 14.40858914390201 CP3 1 31129U 07012N 11334.78009747 .00001290 00000-0 30382-3 0 00330 2 31129 097.8885 349.2932 0102383 023.8012 336.7886 14.52735414245028 CO-65 1 32785U 08021C 11335.70683350 .00002359 00000-0 30011-3 0 1642 2 32785 097.8306 036.2331 0014666 354.8602 005.2447 14.82453554194354 PRISM 1 33493U 09002B 11335.73634672 .00005317 00000-0 66406-3 0 1986 2 33493 098.1455 107.0895 0019126 218.0070 141.9806 14.82673278154336 SOHLA-1 1 33496U 09002E 11334.92215213 .00000733 00000-0 13106-3 0 05929 2 33496 098.0933 083.1997 0006234 321.8117 038.2646 14.69781270152972 TISAT-1 1 36799U 10035E 11335.78653080 .00003295 00000-0 42944-3 0 4689 2 36799 098.0857 045.5814 0016220 095.3280 264.9809 14.81193719 75114 STUDSAT 1 36801U 10035G 11335.88550429 .00009185 00000-0 11539-2 0 2932 2 36801 098.0908 045.7254 0013887 083.7034 276.5750 14.82276198 75128 OOREOS 1 37224U 10062C 11283.12196780 .00000955 00000-0 14226-3 0 03021 2 37224 071.9656 145.3580 0018647 057.9354 302.3616 14.77183931047847 FO-69 1 37227U 0 11335.45306295 .00001032 00000-0 15451-3 0 00398 2 37227 071.9715 030.4150 0018019 325.1311 034.8724 14.76812202006750 NANOSALD 1 37361U 0 11242.25215765 .00180112 00000-0 75811-2 0 03512 2 37361 071.9735 221.4469 0025730 245.3422 114.7284 15.22200108033319 FO-70 1 37380U 0 11335.42573440 .00001017 00000-0 15318-3 0 00422 2 37380 071.9748 030.7858 0018597 322.4343 037.5518 14.76570860006640 NOAA-10 1 16969U 86073A 11334.96216688 .00000212 00000-0 10408-3 0 07251 2 16969 098.6036 002.3493 0013071 096.9139 263.3530 14.27505760311447 NOAA-11 1 19531U 88089A 11334.87508242 .00000106 00000-0 77184-4 0 07211 2 19531 098.7461 059.1312 0011970 073.2946 286.9560 14.14941278196324 NOAA-12 1 21263U 91032A 11334.98445612 .00000116 00000-0 67706-4 0 02317 2 21263 098.7439 352.4500 0014625 061.2471 299.0176 14.25459545068174 MET-3/5 1 21655U 91056A 11334.65674423 .00000051 00000-0 10000-3 0 02745 2 21655 082.5562 293.1483 0014670 099.5718 260.7051 13.17030732975634 MET-2/21 1 22782U 93055A 11334.64782763 -.00000012 00000-0 -24218-4 0 02706 2 22782 082.5471 190.8154 0022547 355.9430 004.1548 13.83669409921572 OKEAN-4 1 23317U 94066A 11334.93604875 .00001691 00000-0 20269-3 0 07914 2 23317 082.5411 217.4052 0020204 292.0616 067.8453 14.83409522925269 NOAA-14 1 23455U 94089A 11334.90932379 .00000160 00000-0 10790-3 0 07123 2 23455 098.8422 055.8057 0009502 161.9598 198.1911 14.13857390872636 NOAA-15 1 25338U 98030A 11335.42343281 .00000366 00000-0 17489-3 0 416 2 25338 098.6723 319.4248 0010355 331.3077 028.7550 14.24996227704540 RESURS 1 25394U 98043A 11334.95829255 .00000103 00000-0 62318-4 0 09600 2 25394 098.3063 328.8571 0002220 089.0247 271.1188 14.24259196696040 FENGYUN1 1 25730U 99025A 11334.92859583 .00001069 00000-0 64001-3 0 04954 2 25730 098.8324 292.6106 0022023 210.5938 149.3938 14.09095609646541 OKEAN-0 1 25860U 99039A 11334.96894966 .00000938 00000-0 15022-3 0 04976 2 25860 097.9076 297.0539 0001313 103.7379 256.3975 14.73982114665222 NOAA-16 1 26536U 00055A 11335.37335250 .00000405 00000-0 24327-3 0 5236 2 26536 099.1226 009.1670 0009872 283.4209 076.5902 14.12678154576961 NOAA-17 1 27453U 02032A 11334.87805417 .00000135 00000-0 76265-4 0 05063 2 27453 098.3604 006.7713 0012202 025.8159 334.3590 14.24357739490380 NOAA-18 1 28654U 05018A 11334.89275669 .00000100 00000-0 79816-4 0 09832 2 28654 099.0200 286.6280 0014463 358.9961 001.1187 14.11562566336443 NOAA-19 1 33591U 09005A 11334.85603547 .00000097 00000-0 78044-4 0 01721 2 33591 098.8448 272.3333 0013401 223.3063 136.7047 14.11252919144894 HUBBLE 1 20580U 90037B 11335.28238065 .00003275 00000-0 23204-3 0 8980 2 20580 028.4708 004.6347 0003460 106.4077 253.7047 15.01910365984794 ISS 1 25544U 98067A 11335.88173611 .00023559 00000-0 30367-3 0 5383 2 25544 051.6411 036.9583 0028440 114.3479 229.0205 15.58420005747087 CO-58 1 28895U 05043F 11334.30753915 .00001276 00000-0 27252-3 0 00379 2 28895 097.9414 204.0503 0018877 061.2110 299.0964 14.60346662324482 FALCON 1 30776U 07006E 11334.61474652 .00007147 00000-0 48386-3 0 2278 2 30776 035.4327 054.3846 0001922 072.0129 288.0797 15.05915349260139 MAST 1 31126U 07012K 11335.62590373 .00000988 00000-0 23146-3 0 3225 2 31126 097.8845 353.2939 0094624 010.0211 350.2845 14.53929638245413 CAPE1 1 31130U 07012P 11335.55944789 .00001385 00000-0 32608-3 0 3333 2 31130 097.8901 349.7765 0102702 021.9664 338.5863 14.52628869244934 COMPASS 1 32787U 08021E 11334.43256286 .00003542 00000-0 44001-3 0 01589 2 32787 097.8296 035.0189 0015512 358.2352 001.8788 14.83129007194199 AAUSAT2 1 32788U 08021F 11335.65506642 .00003921 00000-0 48349-3 0 1501 2 32788 097.8307 036.4988 0014963 355.3610 004.7462 14.83383141194393 DO-64 1 32789U 08021G 11334.71920243 .00005901 00000-0 70870-3 0 1644 2 32789 097.8387 036.9485 0015007 354.6258 005.4854 14.84278754194273 CO-66 1 32791U 08021J 11335.70295788 .00003231 00000-0 40595-3 0 1539 2 32791 097.8297 036.1384 0015871 353.6678 006.4312 14.82709348194322 RS-30 1 32953U 08025A 11335.72512290 .00000010 00000-0 00000 0 0 3048 2 32953 082.5034 058.5547 0019045 024.8784 335.3219 12.43017696159901 TACSAT-3 1 35001U 09028A 11335.89431428 .00087793 00000-0 97797-3 0 7815 2 35001 040.4507 228.1772 0009099 345.5947 014.4639 15.61716167143167 PHARMSAT 1 35002U 09028B 11335.87248291 .00058671 00000-0 75470-3 0 7242 2 35002 040.4703 228.3032 0013288 019.6320 340.5070 15.58037379143165 HAWKSAT1 1 35003U 09028C 11276.79285837 .02274821 58283-2 19360-2 0 8114 2 35003 040.4398 174.3672 0011414 274.3918 085.3844 16.13812532134570 CP6 1 35004U 09028D 11247.64656856 .16152067 73217-5 10011-2 0 7842 2 35004 040.4403 342.9642 0002956 038.0069 322.2231 16.41039951130139 METEOR-M 1 35865U 09049A 11335.77528592 .00000035 00000-0 35930-4 0 9506 2 35865 098.6850 028.5383 0001756 277.2301 082.8675 14.21849105114406 RS-38 1 35869U 09049E 11335.75408568 .00000113 00000-0 70815-4 0 9292 2 35869 098.6819 028.5403 0003862 268.6504 091.4231 14.22039766114417 ARISSAT1 1 37772U 98067CK 11335.64790316 .00301847 00000-0 12449-2 0 3680 2 37772 051.6346 031.2379 0006304 062.1212 075.5411 15.84508862 18723 SRMSAT 1 37839U 11058B 11335.73787526 .00000619 00000-0 19019-3 0 410 2 37839 019.9589 120.4167 0018817 196.9207 163.0570 14.11998671 7166 JUGNU 1 37841U 11058D 11334.74464006 .00000264 00000-0 00000 0 0 386 2 37841 019.9697 127.4083 0012252 162.7733 197.3112 14.10092754 7006 /EX
participants (1)
-
Ray Hoad